Prince Rupert, British Columbia

11:53 AM PST on February 08, 2016 (GMT -0800)
Prince Rupert

Weather History for CYPR - December, 2012

Change the Weather History Date:

Tuesday, December 18, 2012

  Actual Average (WUND) Record (WUND)
Temperature  
Mean Temperature 32 °F -  
Max Temperature 35 °F - - (-1)
Min Temperature 28 °F - - (-1)
Degree Days  
Heating Degree Days 34    
Moisture  
Dew Point 29 °F    
Average Humidity 82    
Maximum Humidity 93    
Minimum Humidity 73    
Precipitation  
Precipitation 0.12 in - - ()
Sea Level Pressure  
Sea Level Pressure 29.48 in    
Wind  
Wind Speed 7 mph ()    
Max Wind Speed 15 mph    
Max Gust Speed 23 mph    
Visibility 8.8 miles    
Events Rain , Snow    
Averages and records for this station are not official NWS values.
T = Trace of Precipitation, MM = Missing Value Source: Averaged Metar Reports

Daily Weather History Graph

Daily Weather History Graph

Search for Another Location

Airport or City:

Trip Planner

Search our weather history database for the weather conditions in past years. The results will help you decide how hot, cold, wet, or windy it might be!

Date:

Astronomy

Dec. 18, 2012 Rise Set
Actual Time 8:59 AM PST 4:18 PM PST
Civil Twilight 8:14 AM PST 5:02 PM PST
Nautical Twilight 7:28 AM PST 5:49 PM PST
Astronomical Twilight 6:44 AM PST 6:33 PM PST
Moon 11:49 AM PST (12/18) 11:50 PM PST (12/18)
Length of Visible Light 8h 47m
Length of Day
7h 19m
Waxing Crescent, 36% of the Moon is Illuminated
Dec 18
Waxing Crescent
Dec 19
First Quarter
Dec 28
Full
Jan 4
Last Quarter
Jan 11
New

Hourly Weather History & Observations

Time (PST) Temp. Windchill Dew Point Humidity Pressure Visibility Wind Dir Wind Speed Gust Speed Precip Events Conditions
12:00 AM 30.2 °F 23.4 °F 28.4 °F 93% 29.62 in 9.0 mi East 6.9 mph - N/A   Mostly Cloudy
1:00 AM 30.2 °F 24.3 °F 28.4 °F 93% 29.62 in 9.0 mi East 5.8 mph - N/A   Overcast
2:00 AM 32.0 °F 25.6 °F 28.4 °F 87% 29.63 in 9.0 mi East 6.9 mph - N/A   Overcast
3:00 AM 30.2 °F 23.4 °F 28.4 °F 93% 29.64 in 9.0 mi East 6.9 mph - N/A   Mostly Cloudy
4:00 AM 31 °F - 27 °F 81% 29.66 in 10 mi East 5.8 mph - -   Overcast
4:00 AM 32.0 °F 26.4 °F 26.6 °F 80% 29.65 in 9.0 mi East 5.8 mph - N/A   Overcast
5:00 AM 30.2 °F 26.7 °F 26.6 °F 86% 29.66 in 9.0 mi East 3.5 mph - N/A   Overcast
6:00 AM 30.2 °F 25.4 °F 28.4 °F 93% 29.66 in 9.0 mi ENE 4.6 mph - N/A   Mostly Cloudy
7:00 AM 30.2 °F - 28.4 °F 93% 29.67 in 9.0 mi Calm Calm - N/A Snow Light Snow
7:33 AM 30.2 °F - 28.4 °F 93% 29.66 in 9.0 mi NE 2.3 mph - N/A   Overcast
8:00 AM 30.2 °F 24.3 °F 26.6 °F 86% 29.65 in 9.0 mi East 5.8 mph - N/A   Mostly Cloudy
9:00 AM 28.4 °F - 26.6 °F 93% 29.65 in 9.0 mi Variable 2.3 mph - N/A   Overcast
10:00 AM 31 °F - 26 °F 76% 29.65 in 10 mi ESE 6.9 mph - -  
10:00 AM 30.2 °F 23.4 °F 26.6 °F 86% 29.65 in 9.0 mi ESE 6.9 mph - N/A   Partly Cloudy
11:00 AM 33.8 °F 28.6 °F 28.4 °F 81% 29.64 in 9.0 mi East 5.8 mph - N/A   Overcast
12:00 PM 33.8 °F 27.7 °F 28.4 °F 81% 29.63 in 9.0 mi ESE 6.9 mph - N/A   Mostly Cloudy
1:00 PM 33.8 °F 27.0 °F 28.4 °F 81% 29.60 in 9.0 mi ESE 8.1 mph - N/A   Partly Cloudy
2:00 PM 33.8 °F 27.0 °F 30.2 °F 87% 29.58 in 9.0 mi ESE 8.1 mph - N/A   Mostly Cloudy
3:00 PM 33.8 °F 27.0 °F 28.4 °F 81% 29.55 in 9.0 mi ESE 8.1 mph - N/A   Partly Cloudy
4:00 PM 33 °F - 29 °F 80% 29.53 in 10 mi ESE 9.2 mph - -   Clear
4:00 PM 33.8 °F 27.0 °F 28.4 °F 81% 29.53 in 9.0 mi ESE 8.1 mph - N/A   Overcast
5:00 PM 33.8 °F 25.8 °F 28.4 °F 81% 29.50 in 9.0 mi ESE 10.4 mph - N/A   Mostly Cloudy
6:00 PM 35.6 °F 27.5 °F 28.4 °F 75% 29.46 in 9.0 mi ESE 11.5 mph 17.3 mph N/A   Mostly Cloudy
7:00 PM 35.6 °F 27.5 °F 28.4 °F 75% 29.43 in 9.0 mi ESE 11.5 mph 17.3 mph N/A   Overcast
7:27 PM 35.6 °F 28.6 °F 28.4 °F 75% 29.42 in 9.0 mi ESE 9.2 mph - N/A Rain Light Rain
7:31 PM 35.6 °F 28.0 °F 28.4 °F 75% 29.42 in 9.0 mi ESE 10.4 mph - N/A Rain Light Rain
7:38 PM 35.6 °F 27.1 °F 30.2 °F 81% 29.42 in 6.0 mi ESE 12.7 mph - N/A   Overcast
7:40 PM 33.8 °F 25.3 °F 30.2 °F 87% 29.42 in 5.0 mi ESE 11.5 mph - N/A   Overcast
7:46 PM 33.8 °F 25.8 °F 28.4 °F 81% 29.41 in 7.0 mi ESE 10.4 mph - N/A Snow Light Snow
7:53 PM 33.8 °F 25.8 °F 30.2 °F 87% 29.41 in 9.0 mi ESE 10.4 mph - N/A Snow Light Snow
8:00 PM 33.8 °F 26.4 °F 28.4 °F 81% 29.40 in 8.0 mi ESE 9.2 mph - N/A Snow Light Snow
8:04 PM 33.8 °F 27.0 °F 30.2 °F 87% 29.40 in 9.0 mi ESE 8.1 mph - N/A Rain , Snow Light Snow
8:07 PM 33.8 °F 27.7 °F 30.2 °F 87% 29.40 in 9.0 mi SE 6.9 mph - N/A Rain Light Rain
8:13 PM 33.8 °F 25.3 °F 28.4 °F 81% 29.40 in 9.0 mi ESE 11.5 mph - N/A Rain , Snow Light Snow
8:18 PM 35.6 °F 28.6 °F 28.4 °F 75% 29.39 in 9.0 mi ESE 9.2 mph - N/A Snow Light Snow
8:21 PM 33.8 °F 27.0 °F 30.2 °F 87% 29.40 in 9.0 mi ESE 8.1 mph - N/A Snow Light Snow
8:30 PM 33.8 °F 25.8 °F 30.2 °F 87% 29.39 in 6.0 mi ESE 10.4 mph - N/A Snow Light Snow
9:00 PM 33.8 °F 27.7 °F 30.2 °F 87% 29.37 in 8.0 mi ESE 6.9 mph - N/A Snow Light Snow
9:04 PM 35.6 °F 28.0 °F 28.4 °F 75% 29.37 in 8.0 mi ESE 10.4 mph - N/A Snow Light Snow
9:08 PM 35.6 °F 28.6 °F 28.4 °F 75% 29.37 in 9.0 mi SE 9.2 mph - N/A Rain , Snow Light Snow
9:09 PM 35.6 °F 28.0 °F 28.4 °F 75% 29.37 in 9.0 mi ESE 10.4 mph - N/A Rain Light Rain
9:13 PM 35.6 °F 27.5 °F 28.4 °F 75% 29.36 in 9.0 mi ESE 11.5 mph - N/A Rain Light Rain
9:38 PM 35.6 °F 27.5 °F 28.4 °F 75% 29.35 in 9.0 mi ESE 11.5 mph 17.3 mph N/A Rain Light Rain
9:43 PM 35.6 °F 29.2 °F 30.2 °F 81% 29.34 in 9.0 mi ESE 8.1 mph 17.3 mph N/A   Overcast
10:00 PM 35 °F - 29 °F 73% 29.33 in 10 mi ESE 9.2 mph - -   Unknown Precipitation
10:00 PM 35.6 °F 27.5 °F 30.2 °F 81% 29.33 in 9.0 mi ESE 11.5 mph - N/A   Overcast
10:15 PM 35.6 °F 28.0 °F 30.2 °F 81% 29.32 in 9.0 mi ESE 10.4 mph 18.4 mph N/A Rain Light Rain
10:20 PM 35.6 °F 28.0 °F 30.2 °F 81% 29.32 in 9.0 mi ESE 10.4 mph 17.3 mph N/A Rain Light Rain
10:42 PM 35.6 °F 27.5 °F 28.4 °F 75% 29.30 in 9.0 mi ESE 11.5 mph 18.4 mph N/A   Overcast
11:00 PM 35.6 °F 26.2 °F 28.4 °F 75% 29.29 in 9.0 mi ESE 15.0 mph 23.0 mph N/A   Overcast